This is the latest recevied weather packets stored in our database for station/object AE5PL. If no packets are shown the sender has not sent any weather packets the latest 1 day(s).
| Time | Temp. | Humidity | Pressure | Rain* | Wind** | Luminosity | Snow |
|---|---|---|---|---|---|---|---|
| 1778005305 | 28.33° C | 68% | 1004 hPa | - | 0 m/s | - | - |
| 1778005005 | 28.33° C | 67% | 1004 hPa | - | 0.89 m/s, 247° | - | - |
| 1778004705 | 28.33° C | 66% | 1003.9 hPa | - | 0.45 m/s, 225° | - | - |
| 1778004405 | 27.78° C | 66% | 1003.9 hPa | - | 0.89 m/s, 225° | - | - |
| 1778004105 | 27.78° C | 68% | 1003.8 hPa | - | 0.45 m/s, 135° | - | - |
| 1778003805 | 27.78° C | 67% | 1003.9 hPa | - | 0.45 m/s, 225° | - | - |
| 1778003505 | 27.78° C | 69% | 1003.9 hPa | - | 0.89 m/s, 225° | - | - |
| 1778003205 | 27.78° C | 67% | 1004 hPa | - | 0.45 m/s, 225° | - | - |
| 1778002905 | 27.78° C | 69% | 1003.9 hPa | - | 0.45 m/s, 225° | - | - |
| 1778002605 | 27.22° C | 69% | 1003.9 hPa | - | 1.79 m/s, 225° | - | - |
| 1778002305 | 27.22° C | 69% | 1003.9 hPa | - | 0.89 m/s, 225° | - | - |
| 1778002005 | 27.22° C | 70% | 1003.9 hPa | - | 1.34 m/s, 225° | - | - |
| 1778001705 | 27.22° C | 71% | 1003.9 hPa | - | 0.89 m/s, 225° | - | - |
| 1778001405 | 26.67° C | 71% | 1003.8 hPa | - | 0.89 m/s, 225° | - | - |
| 1778001105 | 26.67° C | 70% | 1003.8 hPa | - | 0.89 m/s, 225° | - | - |
| 1778000805 | 26.67° C | 70% | 1004.2 hPa | - | 1.34 m/s, 225° | - | - |
| 1778000505 | 26.67° C | 71% | 1004 hPa | - | 0.89 m/s, 225° | - | - |
| 1778000205 | 26.67° C | 71% | 1003.9 hPa | - | 1.34 m/s, 225° | - | - |
| 1777999905 | 26.67° C | 72% | 1003.8 hPa | - | 0.89 m/s, 225° | - | - |
| 1777999605 | 26.11° C | 72% | 1004 hPa | - | 0.89 m/s, 225° | - | - |
| 1777999305 | 26.11° C | 72% | 1004 hPa | - | 0.89 m/s, 225° | - | - |
| 1777999005 | 26.11° C | 71% | 1004.1 hPa | - | 0.45 m/s, 225° | - | - |
| 1777998705 | 26.67° C | 70% | 1004.3 hPa | - | 0.45 m/s, 225° | - | - |
| 1777998405 | 26.67° C | 71% | 1004.2 hPa | - | 0.89 m/s, 247° | - | - |
| 1777998105 | 26.67° C | 71% | 1004 hPa | - | 0.89 m/s, 225° | - | - |
* Rain since midnight (hover to see other rain measurements)
** Current wind speed in m/s (hover to see current wind gust speed)